GEFSMW_prec_meanprecacc_180.txt.gz
Total_Precipitation_Accumulation
0.74 0.92 1.18 1.51 1.72 1.83 2.04 2.16 2.37 2.55 2.59 2.49 2.18 1.83 1.60 1.53 1.48 1.34 1.20 1.12 1.06 1.02 1.01 0.99 0.91 0.83 0.74 0.66 0.62 0.61 0.60 0.59 0.62 0.62 0.51 0.40 0.34 0.29 0.24 0.21 0.19 0.16 0.14
0.58 0.73 1.03 1.23 1.42 1.60 1.74 1.96 2.04 2.29 2.35 2.28 2.23 2.06 1.95 1.84 1.73 1.63 1.43 1.30 1.25 1.15 1.06 1.01 0.99 0.92 0.85 0.81 0.81 0.78 0.73 0.68 0.70 0.75 0.73 0.59 0.47 0.35 0.26 0.24 0.23 0.22 0.22
0.47 0.60 0.82 1.03 1.14 1.33 1.59 1.70 1.77 2.00 2.22 2.30 2.43 2.51 2.45 2.14 1.87 1.70 1.61 1.49 1.42 1.33 1.20 1.09 1.08 1.06 0.96 0.88 0.91 0.94 0.93 0.93 0.92 0.89 1.00 0.89 0.64 0.47 0.34 0.28 0.26 0.26 0.28
0.42 0.48 0.57 0.75 0.88 1.01 1.33 1.65 1.78 1.91 2.11 2.38 2.38 2.32 2.20 1.98 1.72 1.70 1.75 1.71 1.61 1.51 1.36 1.27 1.20 1.18 1.14 1.06 1.07 1.09 1.13 1.17 1.15 1.10 1.04 0.98 0.83 0.77 0.57 0.36 0.30 0.28 0.26
0.46 0.45 0.48 0.60 0.73 0.84 1.07 1.36 1.62 1.85 2.05 2.18 2.23 2.28 2.13 1.96 1.90 1.83 1.79 1.70 1.59 1.54 1.46 1.40 1.37 1.33 1.31 1.30 1.33 1.31 1.29 1.28 1.26 1.22 1.18 1.18 1.07 0.95 0.89 0.65 0.45 0.41 0.37
0.48 0.45 0.45 0.54 0.67 0.73 0.87 1.08 1.33 1.51 1.72 1.93 2.03 2.09 2.08 2.08 2.02 1.84 1.75 1.75 1.72 1.64 1.54 1.52 1.52 1.52 1.49 1.46 1.44 1.45 1.48 1.46 1.41 1.38 1.29 1.25 1.21 1.08 1.09 0.99 0.74 0.67 0.57
0.40 0.40 0.43 0.50 0.60 0.67 0.77 0.87 0.99 1.12 1.29 1.48 1.64 1.74 1.85 1.96 1.89 1.78 1.64 1.62 1.61 1.56 1.51 1.48 1.52 1.58 1.56 1.56 1.58 1.58 1.53 1.56 1.57 1.54 1.49 1.40 1.29 1.22 1.27 1.31 1.11 0.93 0.75
0.40 0.38 0.38 0.43 0.52 0.57 0.65 0.73 0.80 0.88 1.02 1.15 1.28 1.44 1.59 1.77 1.76 1.73 1.58 1.46 1.42 1.42 1.49 1.43 1.37 1.40 1.47 1.51 1.52 1.52 1.49 1.49 1.47 1.45 1.45 1.44 1.34 1.33 1.37 1.46 1.56 1.47 1.16
0.40 0.38 0.37 0.38 0.46 0.50 0.54 0.63 0.75 0.80 0.88 1.00 1.12 1.24 1.34 1.45 1.52 1.58 1.60 1.46 1.38 1.38 1.39 1.34 1.27 1.20 1.21 1.29 1.38 1.39 1.38 1.39 1.39 1.37 1.37 1.40 1.36 1.38 1.42 1.52 1.70 1.90 1.72
0.40 0.37 0.38 0.42 0.46 0.47 0.48 0.56 0.71 0.75 0.77 0.84 0.93 1.02 1.12 1.27 1.36 1.39 1.40 1.36 1.33 1.34 1.32 1.25 1.17 1.11 1.07 1.07 1.14 1.17 1.16 1.20 1.20 1.22 1.25 1.25 1.24 1.29 1.35 1.42 1.50 1.67 1.77
0.41 0.40 0.44 0.50 0.53 0.48 0.50 0.56 0.63 0.73 0.79 0.79 0.84 0.88 0.89 0.97 1.12 1.23 1.25 1.26 1.24 1.23 1.22 1.18 1.14 1.08 1.02 0.97 0.96 0.95 0.98 1.05 1.06 1.09 1.11 1.08 1.06 1.13 1.17 1.23 1.30 1.39 1.50
0.37 0.42 0.49 0.52 0.52 0.54 0.57 0.60 0.62 0.68 0.78 0.80 0.80 0.84 0.86 0.86 0.95 1.04 1.14 1.21 1.28 1.21 1.18 1.15 1.10 1.05 1.00 0.96 0.94 0.89 0.89 0.93 0.96 0.99 1.04 1.03 1.00 1.02 1.06 1.12 1.12 1.13 1.17
0.35 0.36 0.43 0.49 0.50 0.54 0.63 0.67 0.70 0.70 0.71 0.73 0.74 0.74 0.74 0.75 0.81 0.88 0.97 1.04 1.13 1.14 1.11 1.11 1.06 0.98 0.94 0.93 0.90 0.86 0.86 0.88 0.87 0.89 0.97 1.02 1.05 1.05 1.06 1.07 1.07 1.06 1.09
0.33 0.35 0.40 0.44 0.47 0.52 0.57 0.57 0.65 0.67 0.67 0.66 0.71 0.72 0.68 0.68 0.74 0.83 0.88 0.92 0.97 1.04 1.03 1.05 1.09 1.08 1.02 0.98 0.96 0.92 0.88 0.90 0.89 0.89 0.93 0.98 1.01 0.99 0.96 0.99 0.97 1.00 1.05
0.30 0.34 0.37 0.40 0.43 0.41 0.41 0.44 0.50 0.56 0.59 0.60 0.67 0.71 0.72 0.76 0.86 0.90 0.86 0.86 0.88 0.94 0.98 0.98 1.04 1.07 1.07 1.05 1.04 1.01 1.00 1.02 1.03 1.00 0.96 0.95 0.99 0.98 0.95 0.95 0.95 0.98 1.05
0.24 0.25 0.30 0.36 0.38 0.37 0.36 0.37 0.40 0.45 0.46 0.48 0.53 0.60 0.67 0.76 0.86 0.93 0.91 0.87 0.85 0.90 0.97 0.96 1.01 1.09 1.11 1.24 1.21 1.12 1.09 1.08 1.05 0.99 0.91 0.88 0.91 0.91 0.94 0.95 0.95 1.02 1.12
0.18 0.19 0.22 0.28 0.29 0.29 0.31 0.34 0.35 0.39 0.42 0.41 0.43 0.49 0.61 0.72 0.78 0.83 0.88 0.89 0.90 0.99 1.08 1.09 1.10 1.17 1.28 1.34 1.16 1.10 1.01 1.00 0.96 0.89 0.84 0.80 0.77 0.81 0.76 0.81 0.88 0.92 1.03
0.14 0.15 0.18 0.21 0.21 0.22 0.24 0.25 0.27 0.33 0.41 0.45 0.47 0.50 0.57 0.67 0.78 0.82 0.88 0.93 0.96 1.04 1.13 1.18 1.20 1.22 1.25 1.27 1.16 1.06 0.90 0.86 0.83 0.78 0.73 0.72 0.71 0.72 0.78 0.85 0.91 0.84 0.80
0.14 0.14 0.16 0.17 0.16 0.18 0.21 0.21 0.22 0.27 0.35 0.42 0.47 0.47 0.52 0.62 0.73 0.83 0.91 0.96 0.99 1.05 1.10 1.09 1.07 1.04 1.06 1.06 0.97 0.96 0.85 0.84 0.77 0.71 0.71 0.71 0.68 0.76 0.90 0.95 0.97 0.84 0.71
0.17 0.17 0.16 0.16 0.16 0.18 0.20 0.23 0.25 0.29 0.36 0.39 0.44 0.46 0.49 0.57 0.67 0.77 0.87 0.92 0.93 0.93 0.93 0.92 0.87 0.85 0.87 0.93 0.85 0.85 0.83 0.83 0.77 0.72 0.71 0.77 0.76 0.85 0.97 0.92 0.92 0.85 0.70
0.17 0.22 0.24 0.25 0.26 0.28 0.29 0.30 0.31 0.34 0.37 0.40 0.45 0.48 0.51 0.56 0.64 0.69 0.73 0.75 0.73 0.71 0.70 0.69 0.67 0.66 0.70 0.76 0.74 0.75 0.77 0.78 0.79 0.78 0.71 0.71 0.86 0.95 0.98 0.89 0.74 0.75 0.82
0.17 0.22 0.27 0.29 0.31 0.33 0.35 0.35 0.37 0.39 0.40 0.42 0.46 0.50 0.52 0.51 0.52 0.54 0.58 0.56 0.55 0.55 0.54 0.54 0.56 0.57 0.60 0.65 0.69 0.73 0.78 0.82 0.77 0.73 0.67 0.69 0.86 0.85 0.81 0.75 0.76 0.84 0.79
0.16 0.19 0.23 0.24 0.25 0.30 0.36 0.39 0.40 0.39 0.38 0.41 0.42 0.43 0.43 0.42 0.43 0.43 0.44 0.46 0.48 0.49 0.51 0.51 0.52 0.54 0.55 0.58 0.67 0.68 0.75 0.80 0.73 0.70 0.74 0.78 0.79 0.72 0.68 0.71 0.75 0.72 0.68
0.13 0.14 0.16 0.18 0.19 0.21 0.25 0.30 0.32 0.31 0.29 0.32 0.31 0.31 0.31 0.33 0.34 0.35 0.36 0.39 0.41 0.42 0.43 0.46 0.46 0.46 0.48 0.48 0.53 0.60 0.65 0.71 0.69 0.72 0.74 0.71 0.68 0.66 0.67 0.71 0.69 0.64 0.69
0.14 0.12 0.11 0.12 0.13 0.14 0.16 0.20 0.22 0.23 0.23 0.24 0.23 0.23 0.24 0.29 0.33 0.33 0.34 0.37 0.39 0.43 0.45 0.43 0.43 0.45 0.46 0.49 0.60 0.65 0.63 0.68 0.71 0.70 0.61 0.57 0.59 0.61 0.60 0.60 0.63 0.65 0.69
0.15 0.12 0.11 0.12 0.12 0.13 0.13 0.14 0.17 0.21 0.22 0.22 0.21 0.22 0.20 0.24 0.31 0.35 0.35 0.39 0.42 0.47 0.51 0.50 0.46 0.44 0.48 0.53 0.58 0.61 0.67 0.72 0.72 0.64 0.57 0.55 0.55 0.56 0.58 0.58 0.60 0.64 0.69

GEFSMW_prec_meanprecacc_186.txt.gz
Total_Precipitation_Accumulation
0.75 0.93 1.19 1.53 1.75 1.86 2.08 2.21 2.40 2.57 2.61 2.51 2.20 1.84 1.61 1.54 1.49 1.34 1.21 1.13 1.08 1.06 1.04 1.01 0.92 0.83 0.76 0.68 0.64 0.62 0.63 0.67 0.71 0.69 0.55 0.42 0.35 0.30 0.25 0.22 0.20 0.17 0.15
0.58 0.74 1.04 1.24 1.45 1.63 1.78 2.02 2.08 2.30 2.36 2.29 2.24 2.06 1.95 1.84 1.73 1.63 1.43 1.30 1.25 1.16 1.08 1.02 1.00 0.92 0.85 0.84 0.86 0.83 0.76 0.72 0.76 0.83 0.79 0.63 0.49 0.36 0.27 0.25 0.24 0.23 0.23
0.47 0.60 0.83 1.04 1.15 1.36 1.62 1.74 1.80 2.02 2.23 2.31 2.43 2.51 2.45 2.14 1.87 1.70 1.61 1.49 1.42 1.33 1.21 1.11 1.08 1.06 0.96 0.89 0.94 0.99 0.99 0.98 0.96 0.95 1.08 0.97 0.69 0.50 0.35 0.29 0.27 0.27 0.29
0.42 0.49 0.57 0.76 0.89 1.03 1.36 1.67 1.80 1.93 2.12 2.38 2.39 2.33 2.20 1.98 1.72 1.70 1.75 1.71 1.61 1.51 1.36 1.27 1.21 1.18 1.14 1.07 1.08 1.11 1.16 1.21 1.19 1.14 1.08 1.04 0.90 0.83 0.61 0.38 0.31 0.29 0.27
0.47 0.46 0.49 0.61 0.75 0.86 1.11 1.39 1.64 1.87 2.07 2.19 2.24 2.28 2.14 1.96 1.91 1.83 1.79 1.70 1.59 1.54 1.46 1.40 1.38 1.33 1.31 1.30 1.34 1.33 1.32 1.32 1.31 1.26 1.22 1.21 1.11 0.99 0.93 0.68 0.47 0.43 0.38
0.48 0.45 0.46 0.55 0.68 0.75 0.90 1.14 1.38 1.53 1.74 1.95 2.04 2.09 2.09 2.08 2.03 1.85 1.76 1.75 1.72 1.64 1.54 1.52 1.52 1.52 1.49 1.46 1.44 1.46 1.50 1.49 1.45 1.43 1.35 1.29 1.24 1.11 1.12 1.01 0.76 0.68 0.59
0.40 0.40 0.43 0.50 0.60 0.69 0.79 0.90 1.05 1.17 1.31 1.50 1.66 1.75 1.87 1.98 1.91 1.80 1.66 1.64 1.61 1.56 1.51 1.48 1.52 1.58 1.56 1.56 1.58 1.58 1.54 1.56 1.58 1.56 1.51 1.43 1.33 1.25 1.30 1.33 1.13 0.94 0.77
0.40 0.38 0.38 0.43 0.52 0.58 0.66 0.74 0.83 0.92 1.07 1.19 1.31 1.47 1.61 1.80 1.80 1.77 1.61 1.48 1.43 1.43 1.49 1.43 1.37 1.40 1.47 1.51 1.52 1.52 1.50 1.49 1.48 1.45 1.45 1.45 1.36 1.35 1.39 1.48 1.59 1.50 1.19
0.40 0.38 0.37 0.38 0.46 0.50 0.54 0.64 0.76 0.82 0.91 1.03 1.16 1.27 1.37 1.47 1.54 1.61 1.63 1.48 1.40 1.39 1.39 1.34 1.27 1.20 1.21 1.29 1.38 1.39 1.38 1.39 1.39 1.37 1.37 1.40 1.37 1.38 1.43 1.53 1.73 1.93 1.75
0.40 0.37 0.38 0.42 0.46 0.47 0.48 0.56 0.71 0.75 0.78 0.86 0.96 1.05 1.15 1.29 1.38 1.41 1.42 1.37 1.34 1.35 1.33 1.26 1.17 1.11 1.08 1.07 1.14 1.17 1.16 1.20 1.20 1.23 1.25 1.25 1.24 1.30 1.36 1.43 1.52 1.70 1.80
0.41 0.40 0.44 0.50 0.53 0.48 0.50 0.56 0.63 0.74 0.79 0.80 0.85 0.90 0.91 0.99 1.14 1.24 1.27 1.27 1.25 1.24 1.23 1.19 1.14 1.09 1.02 0.97 0.96 0.95 0.98 1.05 1.06 1.09 1.11 1.09 1.07 1.13 1.17 1.24 1.31 1.40 1.52
0.37 0.42 0.49 0.52 0.53 0.54 0.57 0.60 0.62 0.68 0.79 0.80 0.81 0.85 0.87 0.87 0.95 1.05 1.15 1.21 1.28 1.21 1.19 1.16 1.11 1.06 1.01 0.97 0.94 0.89 0.89 0.93 0.96 0.99 1.04 1.03 1.01 1.02 1.06 1.12 1.13 1.14 1.18
0.35 0.36 0.43 0.49 0.50 0.54 0.63 0.67 0.70 0.71 0.71 0.74 0.74 0.75 0.75 0.76 0.82 0.88 0.98 1.04 1.14 1.14 1.11 1.12 1.07 0.98 0.95 0.94 0.91 0.87 0.86 0.88 0.87 0.89 0.97 1.02 1.05 1.06 1.06 1.08 1.07 1.06 1.09
0.33 0.35 0.40 0.44 0.47 0.52 0.57 0.57 0.65 0.67 0.67 0.66 0.71 0.72 0.68 0.68 0.75 0.84 0.88 0.92 0.97 1.04 1.03 1.05 1.10 1.09 1.02 0.99 0.97 0.92 0.89 0.90 0.89 0.89 0.93 0.98 1.01 0.99 0.96 0.99 0.97 1.00 1.06
0.30 0.34 0.37 0.40 0.43 0.41 0.41 0.44 0.50 0.57 0.59 0.60 0.67 0.71 0.72 0.76 0.86 0.90 0.86 0.86 0.88 0.94 0.98 0.98 1.04 1.08 1.07 1.05 1.04 1.01 1.00 1.02 1.03 1.00 0.96 0.95 0.99 0.98 0.95 0.95 0.96 0.99 1.06
0.24 0.25 0.30 0.36 0.39 0.37 0.37 0.37 0.40 0.45 0.46 0.48 0.53 0.60 0.67 0.76 0.86 0.93 0.91 0.87 0.85 0.90 0.97 0.96 1.01 1.09 1.11 1.24 1.22 1.12 1.09 1.08 1.05 0.99 0.91 0.88 0.91 0.91 0.94 0.96 0.96 1.02 1.14
0.18 0.19 0.22 0.28 0.29 0.29 0.31 0.34 0.35 0.39 0.42 0.41 0.43 0.49 0.62 0.72 0.78 0.84 0.88 0.89 0.90 0.99 1.08 1.09 1.10 1.17 1.28 1.34 1.17 1.10 1.02 1.00 0.96 0.89 0.84 0.80 0.77 0.82 0.76 0.81 0.89 0.93 1.04
0.14 0.15 0.18 0.21 0.21 0.22 0.24 0.26 0.27 0.33 0.41 0.45 0.47 0.50 0.57 0.67 0.78 0.82 0.88 0.93 0.96 1.04 1.13 1.18 1.20 1.22 1.25 1.27 1.16 1.06 0.91 0.86 0.83 0.78 0.73 0.72 0.71 0.72 0.78 0.85 0.91 0.85 0.81
0.14 0.14 0.16 0.17 0.16 0.18 0.21 0.21 0.22 0.27 0.36 0.42 0.47 0.48 0.52 0.62 0.74 0.84 0.91 0.96 1.00 1.05 1.10 1.10 1.07 1.04 1.06 1.06 0.98 0.96 0.86 0.84 0.77 0.72 0.71 0.71 0.68 0.77 0.91 0.96 0.97 0.84 0.71
0.17 0.17 0.16 0.16 0.16 0.18 0.20 0.23 0.25 0.29 0.36 0.39 0.45 0.46 0.50 0.57 0.68 0.78 0.87 0.92 0.93 0.94 0.93 0.92 0.88 0.85 0.87 0.93 0.86 0.85 0.83 0.83 0.77 0.72 0.71 0.78 0.76 0.86 0.97 0.92 0.92 0.86 0.71
0.17 0.22 0.24 0.25 0.26 0.28 0.29 0.30 0.31 0.34 0.38 0.40 0.45 0.48 0.51 0.56 0.64 0.70 0.73 0.75 0.74 0.72 0.71 0.70 0.67 0.67 0.70 0.76 0.74 0.75 0.77 0.78 0.80 0.78 0.72 0.71 0.87 0.96 0.99 0.90 0.75 0.77 0.84
0.17 0.22 0.27 0.29 0.31 0.33 0.35 0.36 0.38 0.39 0.40 0.42 0.46 0.50 0.52 0.52 0.52 0.55 0.58 0.57 0.56 0.56 0.55 0.55 0.56 0.58 0.61 0.65 0.70 0.73 0.79 0.83 0.77 0.73 0.67 0.70 0.86 0.86 0.82 0.76 0.77 0.85 0.80
0.16 0.19 0.23 0.24 0.25 0.30 0.36 0.39 0.40 0.39 0.38 0.41 0.42 0.43 0.43 0.42 0.44 0.44 0.45 0.47 0.49 0.50 0.52 0.52 0.52 0.54 0.56 0.59 0.68 0.69 0.76 0.81 0.74 0.70 0.75 0.79 0.79 0.73 0.69 0.72 0.76 0.73 0.69
0.13 0.14 0.16 0.18 0.19 0.21 0.25 0.30 0.32 0.31 0.29 0.32 0.31 0.31 0.32 0.33 0.34 0.36 0.37 0.40 0.43 0.43 0.45 0.47 0.46 0.47 0.48 0.49 0.53 0.61 0.66 0.71 0.70 0.73 0.75 0.72 0.69 0.67 0.68 0.73 0.70 0.64 0.69
0.14 0.12 0.11 0.12 0.13 0.14 0.16 0.20 0.22 0.23 0.23 0.24 0.23 0.23 0.24 0.30 0.33 0.34 0.35 0.38 0.40 0.45 0.46 0.44 0.43 0.46 0.47 0.49 0.61 0.66 0.63 0.69 0.72 0.71 0.62 0.58 0.60 0.62 0.61 0.61 0.64 0.66 0.70
0.15 0.12 0.11 0.12 0.12 0.13 0.13 0.14 0.17 0.21 0.22 0.22 0.22 0.22 0.21 0.25 0.32 0.36 0.36 0.40 0.43 0.48 0.52 0.51 0.47 0.44 0.48 0.54 0.59 0.62 0.68 0.73 0.74 0.66 0.58 0.56 0.56 0.57 0.59 0.59 0.61 0.65 0.70

GEFSMW_prec_meanprecacc_192.txt.gz
Total_Precipitation_Accumulation
0.77 0.95 1.22 1.55 1.77 1.89 2.13 2.27 2.48 2.64 2.69 2.58 2.24 1.87 1.64 1.58 1.52 1.37 1.23 1.14 1.09 1.07 1.06 1.04 0.95 0.87 0.79 0.71 0.66 0.64 0.65 0.69 0.74 0.74 0.62 0.50 0.42 0.34 0.27 0.24 0.21 0.18 0.16
0.59 0.75 1.06 1.25 1.46 1.65 1.80 2.05 2.14 2.36 2.41 2.34 2.27 2.08 1.97 1.87 1.76 1.65 1.45 1.31 1.25 1.16 1.09 1.04 1.03 0.95 0.88 0.87 0.88 0.85 0.78 0.73 0.78 0.85 0.83 0.68 0.55 0.41 0.31 0.26 0.24 0.23 0.24
0.48 0.61 0.84 1.05 1.16 1.36 1.63 1.76 1.84 2.06 2.27 2.34 2.45 2.52 2.46 2.15 1.89 1.72 1.63 1.50 1.43 1.33 1.21 1.12 1.11 1.08 0.97 0.91 0.95 1.00 1.01 1.00 0.99 0.97 1.09 0.99 0.73 0.54 0.39 0.32 0.29 0.27 0.30
0.43 0.50 0.59 0.76 0.89 1.03 1.36 1.69 1.84 1.97 2.15 2.41 2.40 2.33 2.20 1.99 1.73 1.71 1.76 1.72 1.61 1.51 1.36 1.28 1.22 1.20 1.16 1.08 1.10 1.12 1.17 1.22 1.20 1.15 1.09 1.05 0.91 0.85 0.64 0.41 0.33 0.31 0.29
0.48 0.47 0.50 0.62 0.75 0.87 1.11 1.40 1.66 1.91 2.11 2.22 2.26 2.30 2.15 1.96 1.91 1.83 1.80 1.70 1.59 1.54 1.46 1.41 1.38 1.35 1.32 1.31 1.35 1.34 1.33 1.32 1.32 1.27 1.23 1.22 1.11 1.00 0.95 0.70 0.50 0.46 0.40
0.49 0.47 0.47 0.56 0.68 0.75 0.90 1.15 1.41 1.56 1.77 1.99 2.08 2.11 2.10 2.09 2.04 1.85 1.76 1.76 1.72 1.64 1.54 1.52 1.52 1.53 1.51 1.47 1.45 1.47 1.50 1.50 1.46 1.44 1.36 1.30 1.25 1.12 1.13 1.03 0.78 0.70 0.61
0.41 0.41 0.44 0.50 0.61 0.70 0.79 0.91 1.07 1.20 1.34 1.52 1.68 1.77 1.88 1.98 1.91 1.80 1.66 1.64 1.61 1.56 1.51 1.48 1.52 1.58 1.57 1.57 1.58 1.58 1.54 1.57 1.59 1.56 1.52 1.43 1.33 1.26 1.31 1.34 1.15 0.96 0.78
0.41 0.39 0.38 0.43 0.52 0.58 0.67 0.75 0.84 0.94 1.09 1.21 1.33 1.48 1.62 1.80 1.80 1.77 1.61 1.48 1.43 1.43 1.50 1.43 1.37 1.40 1.47 1.51 1.53 1.53 1.50 1.49 1.48 1.45 1.46 1.45 1.36 1.36 1.40 1.49 1.61 1.51 1.20
0.41 0.38 0.37 0.38 0.46 0.50 0.54 0.64 0.76 0.83 0.91 1.04 1.18 1.29 1.38 1.48 1.55 1.62 1.63 1.48 1.40 1.39 1.40 1.34 1.27 1.20 1.21 1.30 1.38 1.39 1.39 1.39 1.39 1.37 1.37 1.40 1.37 1.39 1.43 1.54 1.74 1.95 1.77
0.40 0.37 0.38 0.42 0.46 0.47 0.48 0.56 0.71 0.75 0.78 0.86 0.96 1.06 1.16 1.30 1.39 1.42 1.42 1.38 1.34 1.35 1.33 1.26 1.17 1.11 1.08 1.07 1.14 1.17 1.17 1.21 1.20 1.23 1.26 1.26 1.24 1.30 1.37 1.44 1.53 1.70 1.81
0.41 0.40 0.44 0.51 0.53 0.48 0.50 0.56 0.63 0.74 0.79 0.80 0.85 0.90 0.91 0.99 1.15 1.25 1.27 1.28 1.26 1.24 1.24 1.20 1.14 1.09 1.02 0.98 0.96 0.95 0.99 1.05 1.06 1.09 1.11 1.09 1.07 1.14 1.17 1.24 1.32 1.41 1.53
0.37 0.42 0.49 0.52 0.53 0.54 0.57 0.60 0.63 0.69 0.79 0.80 0.81 0.85 0.87 0.87 0.96 1.06 1.15 1.22 1.28 1.22 1.19 1.16 1.12 1.06 1.01 0.97 0.95 0.90 0.89 0.93 0.97 0.99 1.04 1.04 1.01 1.02 1.06 1.12 1.13 1.14 1.19
0.35 0.36 0.43 0.49 0.50 0.54 0.63 0.67 0.70 0.71 0.71 0.74 0.74 0.75 0.75 0.76 0.82 0.88 0.98 1.05 1.14 1.14 1.11 1.12 1.07 0.99 0.95 0.94 0.92 0.87 0.86 0.88 0.87 0.89 0.97 1.02 1.05 1.06 1.06 1.08 1.07 1.06 1.09
0.33 0.35 0.40 0.44 0.47 0.52 0.57 0.57 0.65 0.67 0.67 0.66 0.71 0.72 0.68 0.68 0.75 0.84 0.88 0.92 0.97 1.04 1.03 1.06 1.10 1.09 1.03 1.00 0.97 0.93 0.89 0.90 0.90 0.89 0.93 0.98 1.01 0.99 0.96 0.99 0.98 1.00 1.06
0.30 0.34 0.37 0.40 0.43 0.41 0.41 0.44 0.50 0.57 0.59 0.60 0.67 0.71 0.72 0.76 0.86 0.90 0.86 0.86 0.88 0.94 0.98 0.99 1.04 1.08 1.08 1.06 1.05 1.02 1.01 1.02 1.04 1.00 0.97 0.95 0.99 0.98 0.95 0.96 0.96 0.99 1.07
0.24 0.25 0.30 0.36 0.39 0.37 0.37 0.37 0.40 0.45 0.47 0.48 0.53 0.60 0.67 0.76 0.86 0.93 0.91 0.87 0.85 0.90 0.97 0.96 1.02 1.09 1.12 1.25 1.23 1.14 1.10 1.09 1.05 1.00 0.92 0.88 0.92 0.91 0.94 0.96 0.96 1.03 1.14
0.18 0.19 0.22 0.28 0.29 0.29 0.31 0.34 0.36 0.39 0.42 0.41 0.43 0.49 0.62 0.72 0.78 0.84 0.88 0.89 0.90 0.99 1.09 1.09 1.10 1.17 1.28 1.35 1.18 1.12 1.03 1.02 0.97 0.90 0.84 0.80 0.78 0.82 0.76 0.82 0.89 0.93 1.04
0.14 0.15 0.18 0.21 0.21 0.22 0.24 0.26 0.27 0.33 0.42 0.45 0.47 0.51 0.57 0.67 0.78 0.82 0.88 0.93 0.96 1.04 1.13 1.18 1.20 1.22 1.26 1.28 1.17 1.08 0.92 0.88 0.84 0.79 0.74 0.73 0.71 0.72 0.78 0.85 0.91 0.85 0.81
0.14 0.14 0.16 0.17 0.16 0.18 0.21 0.21 0.22 0.28 0.36 0.43 0.47 0.48 0.52 0.62 0.74 0.84 0.91 0.96 1.00 1.05 1.11 1.10 1.07 1.05 1.06 1.06 0.98 0.97 0.87 0.85 0.78 0.72 0.71 0.72 0.69 0.77 0.92 0.96 0.98 0.84 0.72
0.17 0.17 0.16 0.16 0.16 0.18 0.20 0.23 0.25 0.29 0.37 0.40 0.45 0.47 0.50 0.58 0.68 0.78 0.87 0.92 0.94 0.94 0.94 0.93 0.88 0.86 0.87 0.94 0.86 0.85 0.84 0.84 0.77 0.72 0.71 0.78 0.76 0.86 0.98 0.93 0.93 0.86 0.71
0.17 0.22 0.24 0.25 0.26 0.28 0.29 0.30 0.31 0.34 0.38 0.41 0.46 0.49 0.51 0.57 0.65 0.70 0.73 0.76 0.74 0.72 0.71 0.70 0.68 0.67 0.70 0.77 0.75 0.76 0.78 0.79 0.80 0.79 0.72 0.72 0.88 0.96 1.00 0.91 0.76 0.77 0.84
0.17 0.22 0.27 0.29 0.32 0.33 0.35 0.36 0.38 0.40 0.40 0.42 0.47 0.51 0.53 0.52 0.53 0.55 0.58 0.57 0.56 0.56 0.55 0.56 0.56 0.58 0.61 0.66 0.70 0.74 0.79 0.84 0.78 0.74 0.68 0.70 0.87 0.87 0.83 0.77 0.78 0.86 0.81
0.16 0.19 0.23 0.24 0.25 0.30 0.36 0.40 0.41 0.40 0.39 0.41 0.43 0.43 0.44 0.43 0.44 0.44 0.45 0.47 0.49 0.50 0.52 0.52 0.53 0.54 0.56 0.59 0.68 0.70 0.77 0.82 0.75 0.71 0.76 0.81 0.81 0.75 0.70 0.73 0.77 0.74 0.70
0.13 0.14 0.16 0.18 0.19 0.21 0.25 0.30 0.32 0.32 0.30 0.32 0.32 0.32 0.32 0.34 0.35 0.36 0.38 0.41 0.43 0.44 0.45 0.47 0.47 0.47 0.49 0.49 0.54 0.62 0.67 0.72 0.71 0.74 0.76 0.73 0.70 0.68 0.69 0.74 0.71 0.65 0.70
0.14 0.12 0.12 0.12 0.13 0.14 0.16 0.20 0.22 0.23 0.23 0.24 0.23 0.23 0.24 0.30 0.34 0.34 0.36 0.39 0.41 0.46 0.47 0.45 0.44 0.46 0.47 0.49 0.62 0.67 0.64 0.70 0.74 0.73 0.64 0.60 0.61 0.63 0.62 0.62 0.65 0.67 0.71
0.15 0.12 0.11 0.12 0.12 0.13 0.13 0.14 0.18 0.21 0.23 0.22 0.22 0.22 0.21 0.25 0.32 0.36 0.37 0.41 0.44 0.49 0.53 0.52 0.48 0.45 0.49 0.54 0.59 0.63 0.68 0.74 0.75 0.67 0.60 0.57 0.57 0.58 0.60 0.60 0.62 0.66 0.71

GEFSMW_prec_meanprecacc_198.txt.gz
Total_Precipitation_Accumulation
0.78 0.96 1.24 1.57 1.82 1.94 2.20 2.36 2.53 2.70 2.77 2.71 2.39 2.03 1.78 1.67 1.58 1.41 1.27 1.18 1.13 1.11 1.12 1.12 1.02 0.91 0.82 0.73 0.68 0.66 0.67 0.72 0.77 0.76 0.64 0.52 0.44 0.36 0.30 0.26 0.22 0.19 0.16
0.60 0.77 1.08 1.28 1.49 1.70 1.86 2.15 2.19 2.40 2.45 2.40 2.39 2.20 2.08 1.96 1.83 1.69 1.48 1.34 1.28 1.19 1.12 1.10 1.08 0.99 0.91 0.89 0.89 0.85 0.79 0.75 0.80 0.87 0.84 0.69 0.57 0.43 0.33 0.29 0.26 0.25 0.24
0.50 0.63 0.86 1.07 1.19 1.40 1.69 1.83 1.92 2.10 2.30 2.37 2.51 2.59 2.52 2.21 1.93 1.75 1.66 1.53 1.45 1.36 1.24 1.15 1.15 1.12 1.00 0.93 0.96 1.01 1.02 1.01 1.00 0.98 1.10 1.00 0.73 0.54 0.40 0.33 0.30 0.29 0.31
0.44 0.52 0.60 0.78 0.92 1.05 1.40 1.73 1.90 2.01 2.18 2.44 2.45 2.37 2.24 2.02 1.76 1.74 1.78 1.75 1.64 1.53 1.39 1.30 1.25 1.23 1.18 1.09 1.11 1.13 1.18 1.23 1.21 1.16 1.10 1.05 0.91 0.86 0.65 0.41 0.34 0.32 0.30
0.52 0.50 0.52 0.63 0.77 0.88 1.13 1.42 1.70 1.96 2.15 2.25 2.29 2.33 2.17 1.98 1.92 1.85 1.81 1.72 1.62 1.56 1.48 1.43 1.40 1.37 1.33 1.31 1.35 1.35 1.34 1.34 1.33 1.29 1.24 1.22 1.11 1.00 0.95 0.71 0.50 0.46 0.41
0.53 0.50 0.49 0.58 0.70 0.76 0.91 1.17 1.43 1.59 1.82 2.03 2.11 2.14 2.11 2.10 2.04 1.86 1.77 1.77 1.74 1.66 1.56 1.54 1.54 1.54 1.52 1.47 1.45 1.47 1.51 1.51 1.47 1.45 1.36 1.31 1.25 1.12 1.14 1.03 0.78 0.70 0.61
0.42 0.43 0.46 0.53 0.64 0.72 0.81 0.92 1.09 1.22 1.37 1.56 1.71 1.79 1.89 1.99 1.91 1.80 1.66 1.64 1.62 1.57 1.52 1.49 1.54 1.59 1.58 1.58 1.59 1.59 1.55 1.58 1.60 1.57 1.52 1.44 1.33 1.26 1.31 1.35 1.15 0.96 0.78
0.42 0.40 0.39 0.44 0.53 0.59 0.68 0.76 0.85 0.95 1.11 1.23 1.35 1.49 1.63 1.81 1.80 1.77 1.61 1.49 1.44 1.44 1.50 1.44 1.38 1.40 1.47 1.52 1.53 1.53 1.51 1.50 1.49 1.47 1.46 1.46 1.36 1.36 1.40 1.50 1.61 1.52 1.20
0.41 0.38 0.38 0.39 0.46 0.50 0.55 0.65 0.77 0.84 0.92 1.06 1.19 1.30 1.39 1.48 1.55 1.62 1.63 1.49 1.41 1.40 1.40 1.35 1.27 1.21 1.22 1.30 1.39 1.39 1.39 1.40 1.40 1.39 1.38 1.41 1.37 1.39 1.43 1.54 1.74 1.95 1.77
0.40 0.37 0.38 0.42 0.46 0.47 0.48 0.56 0.72 0.76 0.79 0.87 0.98 1.08 1.17 1.31 1.39 1.42 1.42 1.38 1.34 1.35 1.34 1.26 1.17 1.11 1.08 1.08 1.15 1.17 1.17 1.21 1.21 1.24 1.27 1.26 1.25 1.30 1.37 1.44 1.53 1.70 1.81
0.41 0.40 0.44 0.51 0.53 0.48 0.50 0.56 0.63 0.74 0.80 0.81 0.86 0.91 0.92 1.00 1.15 1.25 1.27 1.28 1.26 1.25 1.24 1.20 1.15 1.09 1.03 0.98 0.97 0.95 0.99 1.06 1.07 1.10 1.13 1.10 1.08 1.14 1.18 1.24 1.32 1.41 1.53
0.37 0.42 0.49 0.52 0.53 0.54 0.57 0.60 0.63 0.69 0.79 0.81 0.82 0.86 0.88 0.88 0.97 1.06 1.16 1.22 1.29 1.22 1.19 1.16 1.12 1.06 1.02 0.97 0.95 0.90 0.89 0.94 0.97 0.99 1.05 1.05 1.02 1.03 1.07 1.13 1.13 1.14 1.19
0.35 0.36 0.43 0.49 0.50 0.54 0.63 0.67 0.70 0.71 0.71 0.74 0.75 0.75 0.76 0.77 0.83 0.89 0.98 1.05 1.14 1.14 1.11 1.12 1.07 0.99 0.96 0.94 0.92 0.87 0.86 0.88 0.87 0.90 0.98 1.02 1.06 1.06 1.06 1.08 1.07 1.07 1.09
0.33 0.35 0.40 0.44 0.47 0.52 0.57 0.57 0.65 0.67 0.67 0.66 0.71 0.72 0.69 0.69 0.75 0.84 0.88 0.92 0.97 1.04 1.04 1.06 1.10 1.09 1.03 1.00 0.97 0.93 0.89 0.90 0.90 0.89 0.94 0.98 1.01 0.99 0.97 0.99 0.98 1.01 1.06
0.30 0.34 0.37 0.40 0.43 0.41 0.41 0.44 0.50 0.57 0.59 0.60 0.67 0.71 0.72 0.76 0.86 0.90 0.86 0.86 0.88 0.94 0.98 0.99 1.04 1.08 1.08 1.06 1.05 1.02 1.01 1.02 1.04 1.00 0.97 0.96 1.00 0.99 0.96 0.96 0.96 1.00 1.07
0.24 0.25 0.30 0.36 0.39 0.37 0.37 0.37 0.40 0.45 0.47 0.48 0.53 0.60 0.67 0.76 0.86 0.93 0.91 0.87 0.85 0.90 0.97 0.96 1.02 1.09 1.12 1.25 1.23 1.14 1.10 1.09 1.05 1.00 0.92 0.89 0.92 0.92 0.94 0.96 0.96 1.03 1.15
0.18 0.19 0.22 0.28 0.29 0.29 0.31 0.34 0.36 0.39 0.42 0.41 0.43 0.49 0.62 0.72 0.78 0.84 0.88 0.89 0.90 0.99 1.09 1.09 1.10 1.17 1.28 1.35 1.18 1.12 1.03 1.02 0.98 0.90 0.85 0.81 0.78 0.83 0.77 0.82 0.89 0.94 1.05
0.14 0.15 0.18 0.21 0.21 0.22 0.24 0.26 0.27 0.33 0.42 0.45 0.47 0.51 0.57 0.67 0.78 0.82 0.88 0.93 0.96 1.04 1.13 1.18 1.20 1.22 1.26 1.28 1.17 1.08 0.92 0.88 0.84 0.79 0.75 0.73 0.72 0.73 0.79 0.86 0.92 0.85 0.81
0.14 0.14 0.16 0.17 0.16 0.18 0.21 0.21 0.22 0.28 0.37 0.43 0.48 0.48 0.53 0.63 0.74 0.84 0.91 0.96 1.00 1.05 1.11 1.10 1.07 1.05 1.07 1.07 0.99 0.97 0.87 0.86 0.79 0.73 0.72 0.73 0.69 0.78 0.93 0.97 0.99 0.85 0.72
0.17 0.17 0.16 0.16 0.16 0.18 0.20 0.23 0.25 0.29 0.37 0.41 0.45 0.47 0.50 0.58 0.68 0.78 0.87 0.93 0.94 0.94 0.94 0.93 0.88 0.86 0.87 0.94 0.86 0.86 0.85 0.85 0.78 0.73 0.72 0.79 0.77 0.87 0.99 0.94 0.94 0.87 0.72
0.17 0.22 0.24 0.25 0.26 0.28 0.29 0.30 0.31 0.35 0.38 0.42 0.47 0.49 0.52 0.57 0.65 0.71 0.74 0.76 0.75 0.73 0.71 0.70 0.68 0.67 0.70 0.77 0.75 0.76 0.79 0.80 0.81 0.80 0.73 0.73 0.89 0.97 1.01 0.92 0.77 0.78 0.85
0.18 0.23 0.27 0.29 0.32 0.33 0.35 0.36 0.39 0.40 0.40 0.43 0.47 0.52 0.54 0.53 0.54 0.56 0.60 0.58 0.57 0.56 0.55 0.56 0.57 0.58 0.61 0.66 0.71 0.75 0.80 0.85 0.79 0.75 0.69 0.71 0.89 0.89 0.84 0.78 0.79 0.87 0.83
0.16 0.19 0.23 0.24 0.25 0.30 0.36 0.40 0.41 0.40 0.39 0.42 0.43 0.44 0.45 0.45 0.46 0.45 0.46 0.48 0.50 0.50 0.52 0.52 0.53 0.54 0.56 0.59 0.69 0.70 0.77 0.83 0.76 0.72 0.77 0.82 0.82 0.76 0.71 0.75 0.78 0.76 0.71
0.13 0.14 0.16 0.18 0.19 0.21 0.25 0.30 0.32 0.32 0.30 0.33 0.32 0.32 0.33 0.35 0.36 0.37 0.39 0.42 0.44 0.44 0.45 0.47 0.47 0.47 0.49 0.49 0.54 0.62 0.67 0.73 0.72 0.75 0.77 0.74 0.71 0.69 0.70 0.75 0.73 0.67 0.72
0.14 0.12 0.12 0.12 0.13 0.14 0.16 0.20 0.22 0.23 0.23 0.24 0.24 0.24 0.25 0.31 0.35 0.36 0.37 0.40 0.42 0.47 0.48 0.45 0.44 0.47 0.47 0.50 0.62 0.67 0.65 0.71 0.74 0.74 0.65 0.61 0.62 0.64 0.64 0.63 0.66 0.68 0.72
0.15 0.12 0.11 0.12 0.12 0.13 0.13 0.14 0.18 0.21 0.23 0.22 0.22 0.23 0.21 0.26 0.33 0.37 0.38 0.42 0.45 0.50 0.54 0.53 0.49 0.46 0.49 0.55 0.60 0.63 0.69 0.74 0.76 0.69 0.61 0.58 0.58 0.59 0.61 0.62 0.63 0.67 0.72

GEFSMW_prec_meanprecacc_204.txt.gz
Total_Precipitation_Accumulation
0.79 0.97 1.25 1.60 1.86 2.00 2.27 2.43 2.61 2.78 2.86 2.79 2.48 2.13 1.89 1.76 1.64 1.45 1.31 1.24 1.19 1.16 1.16 1.14 1.03 0.93 0.85 0.77 0.71 0.71 0.73 0.77 0.82 0.80 0.67 0.54 0.46 0.39 0.33 0.29 0.24 0.20 0.17
0.61 0.77 1.09 1.29 1.52 1.74 1.91 2.19 2.24 2.47 2.53 2.47 2.46 2.29 2.17 2.06 1.94 1.78 1.53 1.39 1.35 1.26 1.19 1.15 1.11 1.01 0.94 0.93 0.93 0.90 0.85 0.80 0.84 0.91 0.89 0.72 0.59 0.45 0.35 0.32 0.31 0.27 0.26
0.50 0.63 0.87 1.09 1.22 1.44 1.72 1.86 1.95 2.15 2.37 2.44 2.57 2.67 2.60 2.30 2.04 1.87 1.76 1.61 1.53 1.44 1.32 1.22 1.19 1.15 1.04 0.98 1.02 1.06 1.07 1.06 1.04 1.02 1.15 1.04 0.76 0.56 0.41 0.34 0.32 0.32 0.32
0.45 0.52 0.61 0.79 0.94 1.10 1.44 1.76 1.93 2.05 2.23 2.51 2.51 2.43 2.31 2.08 1.82 1.82 1.87 1.84 1.71 1.61 1.47 1.38 1.30 1.27 1.22 1.15 1.16 1.17 1.22 1.28 1.25 1.19 1.14 1.08 0.93 0.87 0.65 0.41 0.34 0.32 0.31
0.52 0.50 0.52 0.64 0.79 0.92 1.18 1.45 1.73 2.00 2.19 2.29 2.34 2.37 2.21 2.02 1.96 1.90 1.88 1.80 1.69 1.64 1.55 1.49 1.45 1.40 1.37 1.36 1.41 1.40 1.38 1.38 1.38 1.32 1.26 1.25 1.13 1.01 0.95 0.71 0.50 0.46 0.41
0.53 0.51 0.51 0.60 0.73 0.80 0.96 1.21 1.46 1.62 1.85 2.07 2.14 2.17 2.14 2.12 2.06 1.88 1.80 1.82 1.80 1.73 1.63 1.61 1.60 1.58 1.55 1.51 1.49 1.52 1.55 1.55 1.51 1.49 1.38 1.32 1.27 1.13 1.14 1.03 0.78 0.70 0.61
0.43 0.44 0.47 0.54 0.67 0.78 0.86 0.97 1.13 1.25 1.41 1.62 1.76 1.82 1.91 2.01 1.94 1.82 1.68 1.67 1.65 1.61 1.56 1.54 1.58 1.63 1.61 1.61 1.62 1.62 1.59 1.62 1.64 1.61 1.55 1.46 1.35 1.27 1.32 1.35 1.15 0.96 0.78
0.42 0.40 0.39 0.45 0.55 0.65 0.74 0.81 0.90 0.99 1.15 1.30 1.43 1.55 1.66 1.83 1.82 1.79 1.63 1.51 1.46 1.46 1.53 1.46 1.40 1.43 1.50 1.54 1.56 1.56 1.54 1.54 1.53 1.50 1.50 1.48 1.37 1.37 1.42 1.51 1.61 1.52 1.20
0.41 0.39 0.38 0.39 0.48 0.54 0.60 0.69 0.80 0.87 0.95 1.10 1.24 1.35 1.42 1.51 1.57 1.64 1.65 1.51 1.43 1.42 1.42 1.36 1.29 1.22 1.23 1.31 1.40 1.41 1.41 1.42 1.43 1.42 1.41 1.43 1.38 1.40 1.45 1.56 1.75 1.95 1.77
0.40 0.37 0.39 0.42 0.47 0.49 0.51 0.60 0.75 0.78 0.81 0.89 1.00 1.10 1.20 1.35 1.43 1.45 1.44 1.40 1.37 1.37 1.35 1.27 1.18 1.12 1.09 1.08 1.16 1.19 1.19 1.23 1.23 1.26 1.29 1.28 1.26 1.31 1.38 1.45 1.54 1.71 1.81
0.41 0.40 0.45 0.51 0.54 0.50 0.51 0.58 0.66 0.76 0.82 0.84 0.88 0.93 0.94 1.03 1.19 1.29 1.30 1.30 1.28 1.27 1.25 1.21 1.15 1.10 1.03 0.98 0.97 0.96 1.00 1.07 1.08 1.12 1.14 1.11 1.09 1.15 1.19 1.25 1.33 1.42 1.54
0.37 0.42 0.50 0.52 0.53 0.55 0.58 0.61 0.64 0.71 0.81 0.83 0.84 0.88 0.90 0.90 0.99 1.09 1.19 1.25 1.31 1.24 1.21 1.17 1.12 1.06 1.02 0.98 0.95 0.91 0.90 0.95 0.98 1.01 1.06 1.06 1.03 1.04 1.08 1.14 1.14 1.16 1.19
0.36 0.37 0.44 0.49 0.51 0.54 0.64 0.67 0.70 0.72 0.73 0.75 0.76 0.77 0.77 0.78 0.83 0.90 1.00 1.07 1.16 1.16 1.13 1.13 1.08 0.99 0.96 0.94 0.92 0.87 0.87 0.89 0.89 0.91 0.99 1.03 1.07 1.08 1.08 1.09 1.09 1.08 1.10
0.34 0.35 0.40 0.44 0.48 0.53 0.57 0.58 0.65 0.67 0.69 0.67 0.72 0.73 0.70 0.69 0.75 0.85 0.89 0.93 0.98 1.05 1.05 1.07 1.11 1.09 1.03 1.00 0.97 0.93 0.89 0.91 0.91 0.90 0.94 0.99 1.02 1.00 0.98 1.01 0.99 1.02 1.08
0.30 0.34 0.37 0.40 0.43 0.42 0.41 0.44 0.50 0.57 0.59 0.61 0.68 0.72 0.74 0.77 0.87 0.91 0.87 0.87 0.89 0.95 0.99 1.00 1.05 1.08 1.08 1.06 1.05 1.02 1.01 1.03 1.04 1.01 0.97 0.96 1.01 0.99 0.97 0.97 0.98 1.01 1.08
0.24 0.26 0.30 0.36 0.39 0.37 0.37 0.37 0.40 0.45 0.47 0.48 0.54 0.61 0.68 0.77 0.87 0.94 0.91 0.88 0.86 0.91 0.98 0.98 1.03 1.10 1.12 1.26 1.23 1.14 1.10 1.09 1.06 1.00 0.92 0.89 0.93 0.92 0.95 0.97 0.98 1.05 1.16
0.18 0.19 0.22 0.28 0.29 0.29 0.32 0.34 0.36 0.39 0.42 0.41 0.43 0.50 0.63 0.73 0.78 0.84 0.89 0.90 0.90 1.00 1.10 1.10 1.11 1.18 1.29 1.36 1.19 1.12 1.04 1.02 0.98 0.91 0.85 0.81 0.79 0.83 0.78 0.83 0.90 0.95 1.06
0.14 0.15 0.18 0.21 0.21 0.22 0.24 0.26 0.27 0.33 0.42 0.45 0.47 0.51 0.58 0.68 0.78 0.83 0.88 0.94 0.96 1.05 1.14 1.19 1.21 1.23 1.26 1.28 1.18 1.08 0.93 0.88 0.84 0.79 0.75 0.74 0.72 0.74 0.80 0.87 0.93 0.86 0.82
0.14 0.14 0.16 0.17 0.16 0.18 0.21 0.21 0.22 0.28 0.37 0.43 0.48 0.48 0.53 0.63 0.74 0.84 0.92 0.96 1.00 1.06 1.11 1.10 1.08 1.05 1.07 1.07 0.99 0.98 0.88 0.86 0.79 0.73 0.73 0.73 0.70 0.79 0.94 0.99 1.00 0.86 0.73
0.18 0.17 0.16 0.16 0.16 0.18 0.20 0.23 0.25 0.29 0.37 0.41 0.45 0.47 0.50 0.58 0.68 0.79 0.88 0.93 0.95 0.95 0.95 0.94 0.89 0.86 0.88 0.94 0.87 0.87 0.86 0.86 0.79 0.73 0.72 0.80 0.78 0.88 1.00 0.96 0.96 0.89 0.73
0.17 0.22 0.24 0.25 0.26 0.28 0.29 0.30 0.32 0.35 0.38 0.42 0.47 0.49 0.52 0.57 0.66 0.71 0.74 0.77 0.76 0.73 0.72 0.71 0.68 0.67 0.71 0.77 0.76 0.77 0.80 0.81 0.82 0.81 0.74 0.73 0.90 0.99 1.03 0.94 0.79 0.80 0.87
0.18 0.23 0.28 0.29 0.32 0.33 0.35 0.36 0.39 0.40 0.41 0.43 0.47 0.52 0.54 0.53 0.54 0.56 0.60 0.58 0.57 0.57 0.56 0.57 0.57 0.58 0.61 0.66 0.71 0.76 0.81 0.86 0.81 0.76 0.70 0.73 0.90 0.91 0.87 0.80 0.81 0.89 0.85
0.16 0.20 0.23 0.24 0.25 0.30 0.36 0.40 0.41 0.40 0.39 0.42 0.43 0.44 0.45 0.45 0.46 0.46 0.47 0.49 0.50 0.51 0.53 0.53 0.54 0.55 0.56 0.59 0.69 0.72 0.79 0.84 0.77 0.73 0.78 0.83 0.85 0.80 0.75 0.78 0.80 0.78 0.74
0.13 0.14 0.16 0.18 0.19 0.21 0.25 0.30 0.32 0.32 0.30 0.33 0.32 0.32 0.33 0.35 0.37 0.38 0.39 0.42 0.45 0.45 0.46 0.47 0.47 0.48 0.49 0.49 0.54 0.63 0.68 0.75 0.74 0.76 0.78 0.76 0.74 0.72 0.73 0.78 0.76 0.70 0.74
0.14 0.12 0.12 0.12 0.13 0.14 0.16 0.20 0.22 0.23 0.23 0.24 0.24 0.24 0.25 0.31 0.35 0.36 0.37 0.40 0.43 0.48 0.49 0.46 0.45 0.47 0.48 0.50 0.63 0.68 0.66 0.72 0.76 0.76 0.66 0.63 0.64 0.66 0.65 0.65 0.68 0.71 0.75
0.16 0.13 0.12 0.12 0.12 0.13 0.13 0.14 0.18 0.21 0.23 0.22 0.22 0.23 0.22 0.26 0.34 0.38 0.38 0.42 0.45 0.51 0.55 0.54 0.50 0.47 0.50 0.55 0.60 0.64 0.70 0.76 0.78 0.71 0.62 0.59 0.59 0.60 0.62 0.63 0.65 0.69 0.74

GEFSMW_prec_meanprecacc_210.txt.gz
Total_Precipitation_Accumulation
0.80 1.00 1.28 1.62 1.90 2.06 2.35 2.50 2.70 2.87 2.92 2.86 2.57 2.25 2.02 1.87 1.72 1.50 1.33 1.26 1.21 1.18 1.18 1.17 1.06 0.93 0.86 0.77 0.72 0.72 0.74 0.80 0.86 0.85 0.71 0.58 0.51 0.43 0.35 0.30 0.25 0.21 0.18
0.62 0.79 1.11 1.31 1.54 1.77 1.97 2.26 2.31 2.54 2.59 2.52 2.51 2.37 2.27 2.15 2.02 1.83 1.56 1.41 1.37 1.29 1.20 1.17 1.14 1.03 0.96 0.94 0.94 0.91 0.87 0.84 0.89 0.96 0.93 0.77 0.63 0.49 0.37 0.34 0.32 0.28 0.27
0.50 0.64 0.88 1.10 1.23 1.46 1.76 1.93 2.03 2.20 2.42 2.48 2.61 2.71 2.66 2.38 2.11 1.92 1.80 1.65 1.56 1.48 1.35 1.25 1.24 1.19 1.07 1.00 1.03 1.08 1.09 1.08 1.08 1.07 1.20 1.08 0.80 0.59 0.44 0.36 0.35 0.33 0.33
0.45 0.52 0.62 0.80 0.95 1.11 1.46 1.81 2.00 2.11 2.27 2.55 2.55 2.47 2.34 2.13 1.88 1.87 1.92 1.89 1.77 1.66 1.51 1.42 1.35 1.32 1.26 1.17 1.18 1.19 1.23 1.30 1.28 1.25 1.19 1.12 0.97 0.90 0.68 0.44 0.37 0.34 0.32
0.52 0.51 0.53 0.65 0.79 0.93 1.19 1.49 1.78 2.05 2.24 2.33 2.37 2.40 2.23 2.05 2.01 1.94 1.91 1.83 1.73 1.67 1.59 1.53 1.51 1.47 1.44 1.41 1.43 1.42 1.39 1.39 1.40 1.37 1.32 1.29 1.17 1.04 0.98 0.73 0.52 0.48 0.43
0.53 0.51 0.51 0.60 0.74 0.81 0.97 1.23 1.49 1.64 1.88 2.09 2.16 2.19 2.16 2.15 2.10 1.91 1.83 1.84 1.82 1.75 1.64 1.62 1.63 1.64 1.62 1.57 1.55 1.56 1.58 1.57 1.53 1.52 1.42 1.37 1.32 1.18 1.17 1.05 0.80 0.72 0.62
0.43 0.44 0.48 0.55 0.68 0.79 0.88 1.00 1.15 1.26 1.43 1.64 1.77 1.83 1.93 2.03 1.96 1.85 1.71 1.69 1.67 1.62 1.58 1.56 1.61 1.67 1.66 1.67 1.67 1.67 1.63 1.66 1.67 1.64 1.58 1.49 1.39 1.33 1.37 1.38 1.17 0.97 0.79
0.42 0.41 0.40 0.46 0.57 0.66 0.76 0.84 0.92 1.01 1.17 1.32 1.44 1.57 1.68 1.85 1.84 1.80 1.65 1.53 1.49 1.49 1.56 1.50 1.44 1.47 1.55 1.60 1.61 1.60 1.57 1.57 1.55 1.53 1.53 1.52 1.42 1.42 1.48 1.56 1.65 1.54 1.22
0.41 0.39 0.38 0.40 0.49 0.55 0.61 0.71 0.83 0.89 0.98 1.12 1.26 1.38 1.45 1.53 1.59 1.65 1.66 1.53 1.45 1.44 1.45 1.39 1.31 1.25 1.27 1.36 1.45 1.44 1.43 1.44 1.45 1.43 1.43 1.46 1.42 1.43 1.49 1.61 1.79 1.99 1.80
0.40 0.37 0.39 0.43 0.48 0.49 0.52 0.61 0.76 0.80 0.83 0.91 1.02 1.12 1.23 1.37 1.45 1.47 1.46 1.42 1.39 1.39 1.37 1.29 1.20 1.13 1.10 1.11 1.19 1.21 1.20 1.24 1.24 1.27 1.30 1.30 1.28 1.34 1.40 1.48 1.57 1.74 1.84
0.41 0.41 0.45 0.52 0.55 0.50 0.52 0.58 0.67 0.77 0.83 0.85 0.90 0.94 0.96 1.04 1.20 1.31 1.32 1.32 1.30 1.29 1.27 1.22 1.16 1.11 1.05 1.00 0.99 0.98 1.02 1.08 1.09 1.12 1.15 1.12 1.10 1.17 1.20 1.26 1.34 1.43 1.55
0.38 0.43 0.50 0.53 0.54 0.56 0.58 0.62 0.65 0.72 0.81 0.84 0.85 0.89 0.90 0.91 0.99 1.09 1.19 1.25 1.32 1.26 1.23 1.19 1.13 1.07 1.03 0.99 0.96 0.92 0.92 0.96 0.99 1.01 1.07 1.07 1.04 1.05 1.09 1.15 1.15 1.16 1.21
0.36 0.37 0.44 0.50 0.52 0.55 0.64 0.68 0.71 0.72 0.73 0.76 0.76 0.77 0.77 0.78 0.84 0.90 1.00 1.07 1.16 1.17 1.14 1.15 1.09 1.00 0.97 0.95 0.92 0.88 0.88 0.90 0.89 0.91 0.99 1.04 1.08 1.08 1.09 1.10 1.09 1.08 1.11
0.34 0.35 0.40 0.44 0.48 0.53 0.58 0.58 0.65 0.67 0.69 0.68 0.72 0.73 0.70 0.70 0.76 0.85 0.89 0.94 0.99 1.06 1.06 1.08 1.11 1.10 1.03 1.00 0.97 0.93 0.90 0.91 0.91 0.91 0.95 1.00 1.04 1.01 0.99 1.02 0.99 1.02 1.08
0.30 0.34 0.38 0.41 0.44 0.43 0.42 0.45 0.51 0.57 0.60 0.62 0.68 0.72 0.74 0.77 0.87 0.91 0.87 0.87 0.90 0.96 1.00 1.01 1.06 1.09 1.08 1.06 1.06 1.03 1.01 1.03 1.05 1.01 0.98 0.98 1.02 1.01 0.98 0.98 0.98 1.01 1.09
0.24 0.26 0.31 0.37 0.40 0.38 0.37 0.38 0.41 0.45 0.47 0.49 0.54 0.61 0.68 0.78 0.87 0.94 0.91 0.88 0.86 0.91 0.98 0.98 1.03 1.10 1.13 1.26 1.23 1.14 1.10 1.10 1.06 1.01 0.93 0.90 0.94 0.93 0.96 0.98 0.98 1.05 1.17
0.18 0.19 0.22 0.28 0.30 0.30 0.32 0.35 0.36 0.39 0.42 0.41 0.43 0.50 0.63 0.73 0.79 0.84 0.89 0.90 0.90 1.00 1.10 1.10 1.12 1.18 1.29 1.36 1.19 1.13 1.04 1.02 0.98 0.91 0.86 0.81 0.79 0.84 0.78 0.84 0.91 0.95 1.07
0.15 0.15 0.18 0.21 0.21 0.23 0.24 0.26 0.28 0.34 0.42 0.45 0.47 0.52 0.58 0.68 0.79 0.83 0.88 0.94 0.96 1.05 1.14 1.20 1.22 1.24 1.27 1.30 1.19 1.10 0.94 0.89 0.85 0.80 0.76 0.74 0.73 0.74 0.81 0.88 0.94 0.87 0.82
0.15 0.14 0.16 0.17 0.16 0.18 0.21 0.21 0.22 0.28 0.37 0.43 0.48 0.48 0.54 0.64 0.75 0.85 0.92 0.96 1.01 1.06 1.12 1.12 1.09 1.07 1.08 1.09 1.01 1.00 0.89 0.87 0.80 0.74 0.73 0.74 0.71 0.79 0.95 1.00 1.01 0.87 0.73
0.18 0.18 0.17 0.16 0.16 0.18 0.20 0.23 0.25 0.29 0.37 0.41 0.45 0.47 0.50 0.59 0.69 0.80 0.89 0.93 0.95 0.96 0.95 0.95 0.91 0.88 0.89 0.96 0.89 0.89 0.88 0.87 0.80 0.74 0.73 0.80 0.79 0.89 1.02 0.97 0.97 0.90 0.74
0.18 0.22 0.25 0.25 0.26 0.28 0.29 0.31 0.32 0.35 0.38 0.42 0.47 0.49 0.52 0.58 0.66 0.72 0.76 0.77 0.76 0.74 0.73 0.72 0.70 0.69 0.72 0.79 0.77 0.79 0.82 0.83 0.83 0.82 0.74 0.74 0.91 1.00 1.04 0.95 0.80 0.81 0.88
0.18 0.23 0.28 0.30 0.32 0.33 0.35 0.36 0.39 0.40 0.41 0.43 0.47 0.52 0.54 0.53 0.54 0.57 0.61 0.59 0.59 0.58 0.57 0.57 0.58 0.60 0.63 0.67 0.73 0.77 0.83 0.88 0.83 0.78 0.70 0.73 0.91 0.92 0.88 0.82 0.82 0.90 0.86
0.17 0.20 0.24 0.25 0.25 0.30 0.36 0.40 0.41 0.41 0.39 0.42 0.43 0.44 0.46 0.45 0.46 0.46 0.47 0.49 0.51 0.52 0.54 0.54 0.55 0.56 0.57 0.60 0.70 0.73 0.80 0.86 0.80 0.75 0.79 0.84 0.86 0.81 0.76 0.79 0.82 0.80 0.75
0.15 0.16 0.17 0.19 0.20 0.22 0.26 0.31 0.33 0.33 0.31 0.34 0.33 0.33 0.33 0.36 0.37 0.38 0.40 0.43 0.45 0.45 0.46 0.48 0.48 0.49 0.50 0.50 0.55 0.63 0.69 0.76 0.75 0.78 0.79 0.77 0.75 0.73 0.74 0.80 0.78 0.72 0.76
0.16 0.14 0.14 0.14 0.15 0.16 0.18 0.21 0.24 0.24 0.24 0.25 0.24 0.24 0.25 0.31 0.35 0.36 0.37 0.40 0.43 0.48 0.49 0.46 0.46 0.48 0.49 0.51 0.63 0.69 0.66 0.73 0.77 0.77 0.67 0.63 0.65 0.67 0.66 0.66 0.69 0.72 0.77
0.17 0.14 0.13 0.13 0.13 0.14 0.14 0.15 0.18 0.21 0.23 0.23 0.22 0.23 0.22 0.26 0.34 0.38 0.38 0.42 0.45 0.51 0.55 0.55 0.51 0.48 0.51 0.56 0.61 0.65 0.71 0.77 0.79 0.73 0.65 0.61 0.60 0.61 0.63 0.64 0.66 0.70 0.76

GEFSMW_prec_meanprecacc_216.txt.gz
Total_Precipitation_Accumulation
0.83 1.05 1.35 1.71 2.00 2.16 2.44 2.57 2.78 2.96 3.01 2.93 2.63 2.33 2.14 2.06 1.89 1.61 1.43 1.34 1.28 1.22 1.21 1.19 1.07 0.95 0.88 0.79 0.74 0.74 0.75 0.81 0.88 0.86 0.72 0.60 0.55 0.47 0.40 0.34 0.29 0.24 0.20
0.64 0.82 1.17 1.40 1.63 1.86 2.04 2.31 2.38 2.65 2.70 2.62 2.58 2.43 2.35 2.27 2.17 1.95 1.65 1.49 1.44 1.34 1.23 1.18 1.15 1.04 0.97 0.96 0.95 0.92 0.88 0.85 0.90 0.98 0.95 0.78 0.67 0.53 0.41 0.37 0.35 0.31 0.29
0.51 0.66 0.92 1.17 1.31 1.54 1.83 1.97 2.08 2.30 2.55 2.60 2.70 2.79 2.74 2.47 2.21 2.03 1.89 1.71 1.62 1.54 1.39 1.26 1.25 1.21 1.09 1.02 1.05 1.09 1.10 1.09 1.09 1.09 1.21 1.09 0.82 0.62 0.47 0.39 0.37 0.35 0.35
0.45 0.54 0.64 0.85 1.02 1.18 1.53 1.86 2.05 2.18 2.39 2.69 2.66 2.55 2.41 2.21 1.96 1.95 1.98 1.95 1.81 1.71 1.56 1.45 1.38 1.35 1.29 1.20 1.20 1.20 1.25 1.30 1.29 1.26 1.20 1.13 0.98 0.91 0.70 0.46 0.38 0.36 0.34
0.52 0.51 0.54 0.67 0.84 0.97 1.24 1.54 1.82 2.11 2.33 2.46 2.50 2.52 2.31 2.11 2.06 2.00 1.97 1.87 1.77 1.71 1.63 1.56 1.54 1.50 1.46 1.43 1.47 1.44 1.41 1.41 1.41 1.38 1.33 1.30 1.18 1.05 0.99 0.75 0.53 0.49 0.44
0.53 0.51 0.52 0.61 0.76 0.85 1.00 1.27 1.52 1.68 1.93 2.19 2.26 2.29 2.25 2.21 2.16 1.97 1.87 1.87 1.86 1.78 1.67 1.65 1.65 1.65 1.63 1.59 1.57 1.59 1.61 1.59 1.54 1.53 1.43 1.38 1.34 1.19 1.19 1.07 0.81 0.73 0.63
0.43 0.44 0.48 0.56 0.69 0.81 0.91 1.02 1.17 1.29 1.45 1.68 1.83 1.90 2.01 2.10 2.02 1.91 1.74 1.72 1.70 1.65 1.61 1.59 1.64 1.69 1.67 1.67 1.68 1.69 1.66 1.68 1.69 1.66 1.60 1.51 1.41 1.35 1.39 1.40 1.19 0.99 0.81
0.42 0.41 0.40 0.46 0.58 0.69 0.80 0.88 0.95 1.03 1.19 1.34 1.47 1.61 1.74 1.91 1.90 1.86 1.69 1.56 1.51 1.51 1.58 1.52 1.46 1.49 1.57 1.61 1.62 1.62 1.59 1.59 1.58 1.55 1.54 1.53 1.43 1.43 1.50 1.58 1.68 1.57 1.24
0.42 0.39 0.38 0.40 0.50 0.56 0.64 0.73 0.84 0.91 0.99 1.14 1.28 1.40 1.49 1.58 1.64 1.70 1.70 1.56 1.48 1.46 1.47 1.41 1.33 1.27 1.29 1.38 1.47 1.46 1.46 1.46 1.47 1.45 1.44 1.47 1.43 1.44 1.50 1.62 1.81 2.01 1.82
0.40 0.37 0.39 0.43 0.49 0.50 0.53 0.62 0.77 0.81 0.84 0.93 1.04 1.14 1.25 1.40 1.48 1.50 1.49 1.44 1.41 1.41 1.39 1.31 1.22 1.16 1.13 1.14 1.21 1.24 1.23 1.27 1.27 1.30 1.32 1.31 1.30 1.35 1.40 1.48 1.58 1.75 1.86
0.41 0.41 0.45 0.52 0.55 0.51 0.53 0.60 0.68 0.78 0.84 0.86 0.91 0.95 0.97 1.06 1.22 1.33 1.33 1.34 1.32 1.31 1.29 1.24 1.18 1.13 1.07 1.02 1.02 1.01 1.05 1.13 1.14 1.17 1.18 1.15 1.12 1.18 1.21 1.27 1.35 1.44 1.57
0.38 0.43 0.51 0.53 0.55 0.56 0.59 0.63 0.66 0.72 0.82 0.85 0.86 0.90 0.91 0.92 1.01 1.10 1.20 1.27 1.33 1.27 1.23 1.20 1.14 1.09 1.04 1.01 0.98 0.94 0.94 0.99 1.03 1.05 1.11 1.09 1.05 1.06 1.09 1.15 1.15 1.17 1.21
0.36 0.37 0.45 0.50 0.52 0.56 0.65 0.68 0.72 0.73 0.74 0.77 0.77 0.78 0.78 0.79 0.84 0.91 1.01 1.08 1.17 1.18 1.15 1.16 1.10 1.01 0.97 0.96 0.93 0.89 0.89 0.91 0.90 0.94 1.02 1.06 1.08 1.09 1.09 1.10 1.09 1.08 1.11
0.34 0.35 0.41 0.45 0.49 0.54 0.58 0.59 0.66 0.68 0.70 0.69 0.73 0.74 0.70 0.70 0.76 0.85 0.90 0.95 1.00 1.07 1.06 1.08 1.12 1.10 1.04 1.01 0.98 0.94 0.90 0.92 0.92 0.92 0.97 1.02 1.04 1.01 0.99 1.02 1.00 1.03 1.08
0.30 0.34 0.38 0.42 0.45 0.43 0.42 0.45 0.51 0.58 0.60 0.62 0.69 0.73 0.74 0.78 0.87 0.91 0.87 0.88 0.90 0.96 1.00 1.01 1.06 1.09 1.09 1.07 1.06 1.03 1.02 1.04 1.05 1.02 0.99 0.99 1.03 1.01 0.98 0.98 0.99 1.02 1.10
0.24 0.26 0.31 0.37 0.40 0.39 0.37 0.38 0.41 0.46 0.47 0.49 0.54 0.61 0.69 0.78 0.87 0.94 0.92 0.88 0.86 0.92 0.99 0.98 1.03 1.10 1.13 1.26 1.24 1.14 1.11 1.10 1.06 1.01 0.93 0.90 0.94 0.94 0.97 0.99 0.99 1.06 1.18
0.18 0.19 0.22 0.28 0.30 0.30 0.33 0.35 0.37 0.40 0.43 0.42 0.43 0.51 0.64 0.74 0.79 0.85 0.89 0.90 0.91 1.01 1.10 1.11 1.12 1.18 1.29 1.36 1.19 1.13 1.04 1.03 0.99 0.91 0.86 0.82 0.80 0.85 0.79 0.85 0.92 0.96 1.08
0.15 0.15 0.18 0.21 0.22 0.23 0.26 0.27 0.29 0.34 0.42 0.46 0.48 0.52 0.59 0.69 0.79 0.83 0.89 0.94 0.96 1.05 1.15 1.20 1.22 1.24 1.27 1.30 1.19 1.10 0.94 0.89 0.86 0.80 0.76 0.75 0.73 0.75 0.82 0.89 0.95 0.88 0.83
0.15 0.14 0.16 0.17 0.16 0.18 0.22 0.22 0.23 0.29 0.37 0.44 0.48 0.49 0.54 0.64 0.75 0.85 0.92 0.96 1.01 1.06 1.12 1.12 1.09 1.07 1.08 1.09 1.01 1.00 0.90 0.87 0.80 0.74 0.73 0.74 0.71 0.80 0.96 1.01 1.03 0.89 0.74
0.18 0.18 0.17 0.17 0.17 0.18 0.21 0.24 0.26 0.30 0.38 0.41 0.46 0.47 0.51 0.59 0.70 0.80 0.89 0.94 0.95 0.96 0.95 0.95 0.91 0.88 0.89 0.96 0.89 0.89 0.88 0.87 0.80 0.74 0.73 0.81 0.79 0.89 1.02 0.98 0.99 0.92 0.75
0.19 0.23 0.26 0.26 0.27 0.29 0.30 0.32 0.33 0.36 0.39 0.42 0.47 0.49 0.52 0.58 0.67 0.73 0.76 0.78 0.77 0.75 0.73 0.72 0.70 0.69 0.72 0.79 0.77 0.79 0.82 0.83 0.84 0.82 0.74 0.74 0.91 1.00 1.05 0.96 0.81 0.83 0.91
0.21 0.26 0.31 0.33 0.34 0.36 0.37 0.38 0.40 0.41 0.41 0.43 0.48 0.52 0.54 0.53 0.54 0.57 0.61 0.60 0.59 0.59 0.57 0.58 0.59 0.60 0.63 0.68 0.73 0.77 0.83 0.88 0.83 0.78 0.71 0.74 0.92 0.93 0.89 0.83 0.84 0.92 0.89
0.22 0.25 0.27 0.28 0.29 0.33 0.38 0.42 0.43 0.41 0.40 0.42 0.44 0.45 0.46 0.45 0.46 0.46 0.48 0.50 0.51 0.53 0.54 0.54 0.55 0.56 0.58 0.61 0.70 0.73 0.80 0.87 0.80 0.76 0.80 0.85 0.87 0.82 0.77 0.80 0.83 0.82 0.78
0.19 0.19 0.21 0.22 0.23 0.24 0.28 0.32 0.33 0.33 0.32 0.35 0.34 0.33 0.34 0.36 0.37 0.38 0.40 0.44 0.46 0.46 0.47 0.49 0.49 0.49 0.51 0.50 0.55 0.64 0.70 0.76 0.76 0.78 0.80 0.78 0.76 0.74 0.75 0.81 0.79 0.73 0.77
0.19 0.17 0.17 0.17 0.18 0.19 0.20 0.23 0.25 0.26 0.26 0.27 0.26 0.25 0.26 0.32 0.36 0.36 0.38 0.41 0.44 0.49 0.50 0.47 0.47 0.49 0.50 0.51 0.64 0.70 0.67 0.74 0.78 0.78 0.69 0.65 0.66 0.68 0.67 0.66 0.70 0.73 0.78
0.20 0.17 0.15 0.16 0.16 0.16 0.16 0.17 0.20 0.23 0.25 0.24 0.24 0.24 0.23 0.27 0.34 0.38 0.38 0.42 0.46 0.52 0.56 0.56 0.53 0.49 0.52 0.57 0.63 0.66 0.73 0.79 0.81 0.75 0.67 0.62 0.61 0.62 0.64 0.65 0.67 0.71 0.76